This is the latest recevied weather packets stored in our database for station/object K6CQU-13. If no packets are shown the sender has not sent any weather packets the latest 10 day(s).
| Time | Temp. | Humidity | Pressure | Rain* | Wind** | Luminosity | Snow |
|---|---|---|---|---|---|---|---|
| 1788103516 | 17.78° C | 75% | 1013.4 hPa | 0 mm | - | 280 W/m² | - |
| 1788103217 | 17.78° C | 75% | 1013.3 hPa | 0 mm | - | 263 W/m² | - |
| 1788102916 | 17.78° C | 76% | 1013.3 hPa | 0 mm | - | 246 W/m² | - |
| 1788102616 | 17.78° C | 77% | 1013.3 hPa | 0 mm | - | 230 W/m² | - |
| 1788102316 | 17.78° C | 79% | 1013.3 hPa | 0 mm | - | 213 W/m² | - |
| 1788102016 | 17.78° C | 78% | 1013.2 hPa | 0 mm | - | 199 W/m² | - |
| 1788101716 | 17.22° C | 79% | 1013.2 hPa | 0 mm | - | 185 W/m² | - |
| 1788101416 | 17.22° C | 80% | 1013.2 hPa | 0 mm | - | 170 W/m² | - |
| 1788101116 | 16.67° C | 82% | 1013.2 hPa | 0 mm | - | 154 W/m² | - |
| 1788100816 | 16.67° C | 81% | 1013.1 hPa | 0 mm | - | 140 W/m² | - |
| 1788100516 | 16.67° C | 82% | 1013 hPa | 0 mm | - | 126 W/m² | - |
| 1788100216 | 16.11° C | 82% | 1012.9 hPa | 0 mm | - | 112 W/m² | - |
| 1788099916 | 15.56° C | 81% | 1012.9 hPa | 0 mm | - | 98 W/m² | - |
| 1788099616 | 15° C | 80% | 1012.9 hPa | 0 mm | - | 85 W/m² | - |
| 1788099316 | 15° C | 80% | 1012.8 hPa | 0 mm | - | 70 W/m² | - |
| 1788099016 | 14.44° C | 80% | 1012.8 hPa | 0 mm | - | 56 W/m² | - |
| 1788098716 | 14.44° C | 81% | 1012.7 hPa | 0 mm | - | 46 W/m² | - |
| 1788098416 | 14.44° C | 82% | 1012.7 hPa | 0 mm | - | 31 W/m² | - |
| 1788098116 | 14.44° C | 84% | 1012.6 hPa | 0 mm | - | 13 W/m² | - |
| 1788097818 | 14.44° C | 84% | 1012.5 hPa | 0 mm | - | 11 W/m² | - |
| 1788097518 | 14.44° C | 83% | 1012.5 hPa | 0 mm | - | 8 W/m² | - |
| 1788097218 | 15° C | 82% | 1012.5 hPa | 0 mm | - | 5 W/m² | - |
| 1788096918 | 15° C | 82% | 1012.4 hPa | 0 mm | - | 2 W/m² | - |
| 1788096618 | 15° C | 81% | 1012.3 hPa | 0 mm | - | 0 W/m² | - |
| 1788096318 | 15° C | 81% | 1012.3 hPa | 0 mm | - | 0 W/m² | - |
* Rain latest hour (hover to see other rain measurements)
** Current wind speed in m/s (hover to see current wind gust speed)